Terminal Aerodrome Forecast
Issued by NWS Blacksburg, VA

Current Version | Previous Version | Text Only | Print | Product List | Glossary Off
Versions: 1 2 3 4 5 6 7 8 9 10 11 12 13 14 15 16 17 18 19 20 21 22 23

000
FTUS41 KRNK 281138
TAFBLF
TAF
KBLF 281138Z 2812/2912 22005KT P6SM SCT250
     FM281500 23009G18KT P6SM BKN250
     FM290000 22008KT P6SM SCT100 BKN250
     FM290600 25006KT P6SM -SHRA SCT030 OVC100
     FM290900 29008KT 4SM -SHRA SCT012 OVC030=

USA.gov is the U.S. government's official web portal to all federal, state and local government web resources and services.